Location: Glencliff
(36.1226°N, 86.7183°W)
Time: 02:15:02
(UTC+00:00)

Unknown - Pass Details

Date: 25 August 2019
Orbit: 549 x 550 km, 53.0° (Epoch: 16 September)

Event Time Altitude Azimuth Distance (km) Brightness Sun altitude
Rises 00:54:11 0° 313° (NW) 2,719 8.5 -6.3°
Reaches altitude 10° 00:56:25 10° 313° (NW) 1,823 7.5 -6.8°
Maximum altitude 01:00:34 90° 218° (SW) 553 3.6 -7.6°
Drops below altitude 10° 01:04:42 10° 135° (SE) 1,814 5.7 -8.3°
Enters shadow 01:05:00 - 135° (SE) 1,934 5.8 -8.4°
